Location: Coche
(10.4506°N, 66.9257°W)
Time: 03:11:58
(UTC+00:00)

YAOGAN 1 - Pass Details

Date: 08 July 2022
Orbit: 617 x 619 km, 97.9° (Epoch: 14 August)

Event Time Altitude Azimuth Distance (km) Brightness Sun altitude
Exits shadow 23:46:29 - 173° (S) 2,801 5.6 -12.6°
Reaches altitude 10° 23:48:29 10° 175° (S) 1,978 4.8 -13.0°
Maximum altitude 23:52:45 69° 258° (WSW) 661 2.8 -14.0°
Drops below altitude 10° 23:57:02 10° 342° (NNW) 1,978 5.8 -14.9°
Sets 23:59:14 0° 345° (NNW) 2,883 6.6 -15.4°
